EW6329 Weather Reports


time (UTC)temp
C
wind
direction
speed
KPH
gust
KPH
rain 1hr
cm
rain 24hr
cm
rain mn
cm
humidity
%
barometer
mb
20260510190055 24 330 0.0 0.0 0.00 0.00 0.00 63 1013.8
20260510184501 25 330 0.0 0.0 0.00 0.00 0.00 63 1013.8
20260510183014 26 330 0.0 3.2 0.00 0.00 0.00 55 1013.6
20260510181528 25 330 0.0 0.0 0.00 0.00 0.00 62 1013.7
20260510180043 25 329 0.0 0.0 0.00 0.00 0.00 58 1013.7
20260510174555 26 336 0.0 1.6 0.00 0.00 0.00 62 1013.8
20260510173005 26 328 0.0 3.2 0.00 0.00 0.00 54 1014.0
20260510171518 25 328 0.0 3.2 0.00 0.00 0.00 54 1014.3
20260510170031 25 329 0.0 3.2 0.00 0.00 0.00 57 1014.4
20260510164545 25 312 0.0 3.2 0.00 0.00 0.00 67 1014.3
20260510163057 25 312 0.0 1.6 0.00 0.00 0.00 65 1014.4
20260510161506 24 310 0.0 3.2 0.00 0.00 0.00 69 1014.6
20260510160022 23 310 0.0 3.2 0.00 0.00 0.00 70 1014.5
20260510154529 23 311 0.0 3.2 0.00 0.00 0.00 73 1014.4
20260510153041 23 311 0.0 3.2 0.00 0.00 0.00 74 1014.3
20260510151556 22 320 0.0 3.2 0.00 0.00 0.00 77 1014.3
20260510150004 22 320 0.0 3.2 0.00 0.00 0.00 78 1014.3
20260510144521 22 320 0.0 3.2 0.00 0.00 0.00 80 1014.4
20260510143026 21 320 0.0 3.2 0.00 0.00 0.00 82 1014.4
20260510141540 21 64 0.0 3.2 0.00 0.00 0.00 83 1014.2
20260510140056 20 64 0.0 3.2 0.00 0.00 0.00 85 1014.0
20260510134502 20 113 0.0 3.2 0.00 0.00 0.00 85 1013.9
20260510133016 20 113 0.0 3.2 0.00 0.00 0.00 87 1014.1
20260510131526 20 113 0.0 3.2 0.00 0.00 0.00 87 1013.8
20260510130041 19 113 0.0 3.2 0.00 0.00 0.00 89 1013.8
20260510124601 18 112 0.0 3.2 0.00 0.00 0.00 91 1013.7
20260510123006 18 112 0.0 3.2 0.00 0.00 0.00 93 1013.6
20260510121512 17 112 0.0 3.2 0.00 0.00 0.00 93 1013.5
20260510120025 16 112 0.0 3.2 0.00 0.00 0.00 93 1013.5
20260510114542 16 112 0.0 0.0 0.00 0.00 0.00 92 1013.4
20260510113052 16 112 0.0 0.0 0.00 0.00 0.00 91 1013.3
20260510111501 16 112 0.0 1.6 0.00 0.00 0.00 91 1012.9
20260510110015 15 126 0.0 0.0 0.00 0.00 0.00 90 1012.8
20260510104534 15 126 0.0 0.0 0.00 0.00 0.00 88 1012.4
20260510103050 15 126 0.0 0.0 0.00 0.00 0.00 87 1012.3
20260510101605 15 126 0.0 0.0 0.00 0.00 0.00 86 1012.2
20260510100005 16 126 0.0 0.0 0.00 0.00 0.00 82 1012.1
20260510094533 16 126 0.0 0.0 0.00 0.00 0.00 82 1012.0
20260510093031 16 126 0.0 0.0 0.00 0.00 0.00 82 1011.8
20260510091545 16 126 0.0 0.0 0.00 0.00 0.00 81 1011.5
20260510090058 16 126 0.0 0.0 0.00 0.00 0.00 80 1011.3
20260510084508 17 126 0.0 0.0 0.00 0.00 0.00 81 1011.3
20260510083020 17 126 0.0 0.0 0.00 0.00 0.00 84 1011.4
20260510081539 17 126 0.0 0.0 0.00 0.00 0.00 82 1011.2
20260510080048 17 126 0.0 0.0 0.00 0.00 0.00 83 1011.2
20260510074602 16 126 0.0 3.2 0.00 0.00 0.00 78 1011.1
20260510073011 16 126 0.0 0.0 0.00 0.00 0.00 77 1011.2
20260510071524 16 126 0.0 0.0 0.00 0.00 0.00 75 1011.1
20260510070045 16 126 0.0 0.0 0.00 0.00 0.00 74 1011.1
20260510064553 16 126 0.0 0.0 0.00 0.00 0.00 72 1011.2
20260510063002 16 126 0.0 0.0 0.00 0.00 0.00 70 1011.0
20260510061522 16 126 0.0 0.0 0.00 0.00 0.00 74 1010.8
20260510060026 16 126 0.0 0.0 0.00 0.00 0.00 75 1010.7
20260510054555 16 126 0.0 1.6 0.00 0.00 0.00 74 1010.6
20260510053054 16 126 0.0 0.0 0.00 0.00 0.00 74 1010.6
20260510051514 16 126 0.0 0.0 0.00 0.00 0.00 72 1010.7
20260510050017 17 126 0.0 1.6 0.00 0.00 0.00 69 1010.6
20260510044535 17 126 0.0 0.0 0.00 0.00 0.00 69 1010.7
20260510043044 17 126 0.0 0.0 0.00 0.00 0.00 71 1010.6
20260510041634 17 126 0.0 3.2 0.00 0.00 0.00 68 1010.6
20260510040006 17 126 0.0 0.0 0.00 0.00 0.00 68 1010.7
20260510034520 17 126 0.0 3.2 0.00 0.00 0.00 65 1010.6
20260510033033 18 126 0.0 1.6 0.00 0.00 0.00 64 1010.7
20260510031553 18 126 0.0 0.0 0.00 0.00 0.00 63 1010.7
20260510030100 19 126 0.0 0.0 0.00 0.00 0.00 61 1010.7
20260510024510 20 126 0.0 0.0 0.00 0.00 0.00 62 1010.6
20260510023020 20 126 0.0 0.0 0.00 0.00 0.00 58 1010.5
20260510021533 20 126 0.0 0.0 0.00 0.00 0.00 55 1010.2
20260510020046 21 126 0.0 0.0 0.00 0.00 0.00 52 1010.0
20260510014615 21 126 0.0 0.0 0.00 0.00 0.00 51 1009.8
20260510013010 22 126 0.0 0.0 0.00 0.00 0.00 50 1009.5
20260510011523 22 126 0.0 0.0 0.00 0.00 0.00 49 1009.3
20260510010036 22 126 0.0 0.0 0.00 0.00 0.00 49 1009.1
20260510004550 22 126 0.0 0.0 0.00 0.00 0.00 48 1009.0
20260510003103 22 126 0.0 0.0 0.00 0.00 0.00 48 1008.7
20260510001513 23 131 0.0 0.0 0.00 0.00 0.00 45 1008.6
20260510000026 23 131 0.0 0.0 0.00 0.00 0.00 46 1008.4
20260509234539 23 131 0.0 0.0 0.00 0.00 0.00 46 1008.3
20260509233053 23 126 0.0 0.0 0.00 0.00 0.00 45 1008.2
20260509231502 24 323 0.0 0.0 0.00 0.00 0.00 43 1008.3
20260509230015 24 323 0.0 0.0 0.00 0.00 0.00 41 1008.1
20260509224529 24 323 0.0 0.0 0.00 0.00 0.00 44 1007.9
20260509223046 25 323 0.0 1.6 0.00 0.00 0.00 43 1008.0
20260509221555 26 323 0.0 3.2 0.00 0.00 0.00 43 1008.1
20260509220007 26 323 0.0 3.2 0.00 0.00 0.00 36 1008.2
20260509214518 25 323 0.0 0.0 0.00 0.00 0.00 39 1008.2
20260509213032 25 323 0.0 1.6 0.00 0.00 0.00 41 1008.3
20260509211553 25 323 0.0 3.2 0.00 0.00 0.00 48 1008.3
20260509210108 25 323 0.0 3.2 0.00 0.00 0.00 46 1008.4
20260509204508 26 323 0.0 3.2 0.00 0.00 0.00 38 1008.5
20260509203024 26 323 0.0 3.2 0.00 0.00 0.00 40 1008.4
20260509201535 26 318 0.0 3.2 0.00 0.00 0.00 39 1008.5
20260509200050 25 318 0.0 3.2 0.00 0.00 0.00 44 1008.6
20260509194558 25 317 0.0 3.2 0.00 0.00 0.00 45 1008.8
20260509193009 25 317 0.0 1.6 0.00 0.00 0.00 42 1008.7
20260509191525 25 317 0.0 3.2 0.00 0.00 0.00 44 1008.8